Time,TemperatureF,DewpointF,PressureIn,WindDirection,WindDirectionDegrees,WindSpeedMPH,WindSpeedGustMPH,Humidity,HourlyPrecipIn,Conditions,Clouds,dailyrainin,SoftwareType,DateUTC
2013-01-26 00:02:00,38.8,29.0,30.17,WNW,296,1.0,3.0,69,0.00,,,0.00,weatherlink.com 1.10,2013-01-26 05:02:00,
2013-01-26 00:17:00,38.8,30.0,30.17,NNW,340,0.0,1.0,70,0.00,,,0.00,weatherlink.com 1.10,2013-01-26 05:17:00,
2013-01-26 00:32:00,38.8,29.0,30.17,WSW,248,0.0,3.0,68,0.00,,,0.00,weatherlink.com 1.10,2013-01-26 05:32:00,
2013-01-26 00:47:00,38.9,29.0,30.17,WSW,249,0.0,1.0,69,0.00,,,0.00,weatherlink.com 1.10,2013-01-26 05:47:00,
2013-01-26 01:02:00,39.0,30.0,30.16,WSW,248,0.0,1.0,70,0.00,,,0.00,weatherlink.com 1.10,2013-01-26 06:02:00,
2013-01-26 01:17:00,38.8,30.0,30.16,WSW,248,0.0,1.0,70,0.00,,,0.00,weatherlink.com 1.10,2013-01-26 06:17:00,
2013-01-26 01:32:00,38.5,30.0,30.16,WSW,248,0.0,1.0,71,0.00,,,0.00,weatherlink.com 1.10,2013-01-26 06:32:00,
2013-01-26 01:47:00,38.2,30.0,30.16,WSW,243,0.0,1.0,72,0.00,,,0.00,weatherlink.com 1.10,2013-01-26 06:47:00,
2013-01-26 02:02:00,37.5,30.0,30.16,WSW,243,0.0,0.0,73,0.00,,,0.00,weatherlink.com 1.10,2013-01-26 07:02:00,
2013-01-26 02:17:00,36.7,30.0,30.16,WSW,243,0.0,1.0,77,0.00,,,0.00,weatherlink.com 1.10,2013-01-26 07:17:00,
2013-01-26 02:32:00,36.3,30.0,30.16,WSW,243,0.0,1.0,78,0.00,,,0.00,weatherlink.com 1.10,2013-01-26 07:32:00,
2013-01-26 02:47:00,36.0,30.0,30.15,WSW,243,0.0,0.0,78,0.00,,,0.00,weatherlink.com 1.10,2013-01-26 07:47:00,
2013-01-26 03:02:00,35.7,30.0,30.15,WSW,243,0.0,1.0,79,0.00,,,0.00,weatherlink.com 1.10,2013-01-26 08:02:00,
2013-01-26 03:17:00,35.3,30.0,30.15,WSW,243,0.0,0.0,81,0.00,,,0.00,weatherlink.com 1.10,2013-01-26 08:17:00,
2013-01-26 03:32:00,35.3,30.0,30.15,WSW,243,0.0,1.0,82,0.00,,,0.00,weatherlink.com 1.10,2013-01-26 08:32:00,
2013-01-26 03:47:00,35.8,31.0,30.15,WSW,243,0.0,1.0,82,0.00,,,0.00,weatherlink.com 1.10,2013-01-26 08:47:00,
2013-01-26 04:02:00,36.3,31.0,30.14,WSW,243,0.0,1.0,80,0.00,,,0.00,weatherlink.com 1.10,2013-01-26 09:02:00,
2013-01-26 04:17:00,36.0,30.0,30.14,WSW,243,0.0,0.0,80,0.00,,,0.00,weatherlink.com 1.10,2013-01-26 09:17:00,
2013-01-26 04:32:00,35.5,30.0,30.14,WSW,243,0.0,0.0,81,0.00,,,0.00,weatherlink.com 1.10,2013-01-26 09:32:00,
2013-01-26 04:47:00,34.9,30.0,30.14,WSW,243,0.0,0.0,82,0.00,,,0.00,weatherlink.com 1.10,2013-01-26 09:47:00,
2013-01-26 05:03:00,34.2,30.0,30.15,WSW,243,1.0,1.0,84,0.00,,,0.00,weatherlink.com 1.10,2013-01-26 10:03:00,
2013-01-26 05:17:00,33.6,29.0,30.15,North,359,0.0,0.0,84,0.00,,,0.00,weatherlink.com 1.10,2013-01-26 10:17:00,
2013-01-26 05:33:00,33.4,29.0,30.15,North,358,0.0,1.0,85,0.00,,,0.00,weatherlink.com 1.10,2013-01-26 10:33:00,
2013-01-26 05:47:00,33.0,29.0,30.15,North,356,1.0,2.0,86,0.00,,,0.00,weatherlink.com 1.10,2013-01-26 10:47:00,
2013-01-26 06:02:00,32.8,30.0,30.16,NNW,342,0.0,2.0,88,0.00,,,0.00,weatherlink.com 1.10,2013-01-26 11:02:00,
2013-01-26 06:17:00,32.6,30.0,30.17,SW,235,0.0,1.0,88,0.00,,,0.00,weatherlink.com 1.10,2013-01-26 11:17:00,
2013-01-26 06:33:00,32.3,29.0,30.17,SW,235,0.0,0.0,88,0.00,,,0.00,weatherlink.com 1.10,2013-01-26 11:33:00,
2013-01-26 06:47:00,32.4,30.0,30.17,SW,235,0.0,1.0,89,0.00,,,0.00,weatherlink.com 1.10,2013-01-26 11:47:00,
2013-01-26 07:03:00,32.1,29.0,30.18,WSW,238,0.0,1.0,88,0.00,,,0.00,weatherlink.com 1.10,2013-01-26 12:03:00,
2013-01-26 07:18:00,31.8,29.0,30.18,WSW,238,0.0,0.0,89,0.00,,,0.00,weatherlink.com 1.10,2013-01-26 12:18:00,
2013-01-26 07:33:00,31.9,29.0,30.19,WSW,238,0.0,0.0,89,0.00,,,0.00,weatherlink.com 1.10,2013-01-26 12:33:00,
2013-01-26 07:48:00,32.2,30.0,30.20,SW,236,1.0,1.0,90,0.00,,,0.00,weatherlink.com 1.10,2013-01-26 12:48:00,
2013-01-26 08:03:00,32.6,30.0,30.20,SW,236,0.0,1.0,90,0.00,,,0.00,weatherlink.com 1.10,2013-01-26 13:03:00,
2013-01-26 08:18:00,34.3,32.0,30.20,NE,47,0.0,1.0,91,0.00,,,0.00,weatherlink.com 1.10,2013-01-26 13:18:00,
2013-01-26 08:33:00,36.1,32.0,30.20,ENE,78,0.0,2.0,85,0.00,,,0.00,weatherlink.com 1.10,2013-01-26 13:33:00,
2013-01-26 08:48:00,37.9,32.0,30.20,ENE,57,0.0,2.0,78,0.00,,,0.00,weatherlink.com 1.10,2013-01-26 13:48:00,
2013-01-26 09:03:00,39.5,32.0,30.21,NNW,347,1.0,2.0,73,0.00,,,0.00,weatherlink.com 1.10,2013-01-26 14:03:00,
2013-01-26 09:18:00,40.7,32.0,30.21,ESE,102,0.0,1.0,72,0.00,,,0.00,weatherlink.com 1.10,2013-01-26 14:18:00,
2013-01-26 09:33:00,42.5,34.0,30.22,SW,219,1.0,2.0,71,0.00,,,0.00,weatherlink.com 1.10,2013-01-26 14:33:00,
2013-01-26 09:48:00,43.4,33.0,30.23,SSW,212,1.0,2.0,68,0.00,,,0.00,weatherlink.com 1.10,2013-01-26 14:48:00,
2013-01-26 10:03:00,44.0,34.0,30.23,NW,306,2.0,5.0,68,0.00,,,0.00,weatherlink.com 1.10,2013-01-26 15:03:00,
2013-01-26 10:18:00,45.7,36.0,30.23,ESE,104,0.0,3.0,69,0.00,,,0.00,weatherlink.com 1.10,2013-01-26 15:18:00,
2013-01-26 10:33:00,46.9,36.0,30.23,SW,217,1.0,6.0,67,0.00,,,0.00,weatherlink.com 1.10,2013-01-26 15:33:00,
2013-01-26 10:48:00,47.7,37.0,30.23,SW,233,1.0,5.0,66,0.00,,,0.00,weatherlink.com 1.10,2013-01-26 15:48:00,
2013-01-26 11:03:00,49.0,38.0,30.23,ESE,116,1.0,3.0,66,0.00,,,0.00,weatherlink.com 1.10,2013-01-26 16:03:00,
2013-01-26 11:18:00,49.7,38.0,30.23,ESE,105,0.0,5.0,64,0.00,,,0.00,weatherlink.com 1.10,2013-01-26 16:18:00,
2013-01-26 11:33:00,49.6,38.0,30.23,East,98,2.0,6.0,65,0.00,,,0.00,weatherlink.com 1.10,2013-01-26 16:33:00,
2013-01-26 11:48:00,49.7,37.0,30.23,SW,228,4.0,4.0,63,0.00,,,0.00,weatherlink.com 1.10,2013-01-26 16:48:00,
2013-01-26 12:04:00,49.7,37.0,30.22,NW,315,0.0,8.0,62,0.00,,,0.00,weatherlink.com 1.10,2013-01-26 17:04:00,
2013-01-26 12:18:00,50.0,37.0,30.22,NNW,340,1.0,4.0,62,0.00,,,0.00,weatherlink.com 1.10,2013-01-26 17:18:00,
2013-01-26 12:33:00,50.6,37.0,30.21,North,5,2.0,3.0,61,0.00,,,0.00,weatherlink.com 1.10,2013-01-26 17:33:00,
2013-01-26 12:48:00,51.9,38.0,30.21,East,81,2.0,5.0,60,0.00,,,0.00,weatherlink.com 1.10,2013-01-26 17:48:00,
2013-01-26 13:03:00,53.4,39.0,30.19,SE,136,0.0,4.0,58,0.00,,,0.00,weatherlink.com 1.10,2013-01-26 18:03:00,
2013-01-26 13:18:00,54.3,39.0,30.20,NW,317,2.0,3.0,56,0.00,,,0.00,weatherlink.com 1.10,2013-01-26 18:18:00,
2013-01-26 13:33:00,54.5,38.0,30.19,SSW,198,0.0,5.0,55,0.00,,,0.00,weatherlink.com 1.10,2013-01-26 18:33:00,
2013-01-26 13:49:00,55.2,39.0,30.19,East,91,2.0,6.0,55,0.00,,,0.00,weatherlink.com 1.10,2013-01-26 18:49:00,
2013-01-26 14:04:00,56.1,39.0,30.19,SW,218,2.0,5.0,53,0.00,,,0.00,weatherlink.com 1.10,2013-01-26 19:04:00,
2013-01-26 14:19:00,56.7,39.0,30.19,ENE,60,3.0,4.0,52,0.00,,,0.00,weatherlink.com 1.10,2013-01-26 19:19:00,
2013-01-26 14:34:00,55.5,38.0,30.20,East,84,0.0,5.0,52,0.00,,,0.00,weatherlink.com 1.10,2013-01-26 19:34:00,
2013-01-26 14:49:00,55.4,40.0,30.20,ENE,70,4.0,4.0,56,0.00,,,0.00,weatherlink.com 1.10,2013-01-26 19:49:00,
2013-01-26 15:04:00,53.0,41.0,30.21,SSW,207,1.0,3.0,64,0.00,,,0.00,weatherlink.com 1.10,2013-01-26 20:04:00,
2013-01-26 15:19:00,52.1,41.0,30.20,East,82,6.0,7.0,65,0.00,,,0.00,weatherlink.com 1.10,2013-01-26 20:19:00,
2013-01-26 15:34:00,49.9,39.0,30.21,East,89,1.0,9.0,67,0.00,,,0.00,weatherlink.com 1.10,2013-01-26 20:34:00,
2013-01-26 15:49:00,49.5,40.0,30.21,East,101,4.0,8.0,69,0.00,,,0.00,weatherlink.com 1.10,2013-01-26 20:49:00,
2013-01-26 16:04:00,49.6,40.0,30.22,East,89,4.0,9.0,69,0.00,,,0.00,weatherlink.com 1.10,2013-01-26 21:04:00,
2013-01-26 16:19:00,49.2,40.0,30.22,ENE,59,3.0,9.0,70,0.00,,,0.00,weatherlink.com 1.10,2013-01-26 21:19:00,
2013-01-26 16:34:00,48.8,40.0,30.23,ESE,114,4.0,8.0,72,0.00,,,0.00,weatherlink.com 1.10,2013-01-26 21:34:00,
2013-01-26 16:49:00,48.7,40.0,30.24,East,98,1.0,7.0,73,0.00,,,0.00,weatherlink.com 1.10,2013-01-26 21:49:00,
2013-01-26 17:04:00,48.4,40.0,30.24,NE,48,0.0,8.0,73,0.00,,,0.00,weatherlink.com 1.10,2013-01-26 22:04:00,
2013-01-26 17:19:00,47.7,40.0,30.25,East,86,0.0,6.0,74,0.00,,,0.00,weatherlink.com 1.10,2013-01-26 22:19:00,
2013-01-26 17:34:00,47.1,40.0,30.25,ESE,114,0.0,2.0,75,0.00,,,0.00,weatherlink.com 1.10,2013-01-26 22:34:00,
2013-01-26 17:49:00,45.9,39.0,30.25,East,79,1.0,2.0,77,0.00,,,0.00,weatherlink.com 1.10,2013-01-26 22:49:00,
2013-01-26 18:04:00,44.6,39.0,30.26,East,89,0.0,2.0,80,0.00,,,0.00,weatherlink.com 1.10,2013-01-26 23:04:00,
2013-01-26 18:19:00,43.1,39.0,30.26,East,89,0.0,1.0,84,0.00,,,0.00,weatherlink.com 1.10,2013-01-26 23:19:00,
2013-01-26 18:34:00,42.3,38.0,30.27,East,90,0.0,0.0,86,0.00,,,0.00,weatherlink.com 1.10,2013-01-26 23:34:00,
2013-01-26 18:49:00,41.4,38.0,30.27,East,101,0.0,1.0,88,0.00,,,0.00,weatherlink.com 1.10,2013-01-26 23:49:00,
2013-01-26 19:04:00,40.7,38.0,30.28,East,101,0.0,0.0,89,0.00,,,0.00,weatherlink.com 1.10,2013-01-27 00:04:00,
2013-01-26 19:19:00,39.9,37.0,30.29,East,101,0.0,0.0,90,0.00,,,0.00,weatherlink.com 1.10,2013-01-27 00:19:00,
2013-01-26 19:34:00,39.1,37.0,30.29,ESE,103,0.0,1.0,91,0.00,,,0.00,weatherlink.com 1.10,2013-01-27 00:34:00,
2013-01-26 19:49:00,38.3,36.0,30.29,ESE,103,0.0,1.0,91,0.00,,,0.00,weatherlink.com 1.10,2013-01-27 00:49:00,
2013-01-26 20:04:00,37.7,36.0,30.29,NNE,30,0.0,1.0,92,0.00,,,0.00,weatherlink.com 1.10,2013-01-27 01:04:00,
2013-01-26 20:19:00,37.3,36.0,30.30,NNE,30,0.0,1.0,93,0.00,,,0.00,weatherlink.com 1.10,2013-01-27 01:19:00,
2013-01-26 20:34:00,37.1,35.0,30.31,SE,141,0.0,1.0,93,0.00,,,0.00,weatherlink.com 1.10,2013-01-27 01:34:00,
2013-01-26 20:49:00,37.1,35.0,30.31,NNE,33,0.0,1.0,93,0.00,,,0.00,weatherlink.com 1.10,2013-01-27 01:49:00,
2013-01-26 21:04:00,37.5,35.0,30.32,ESE,110,0.0,1.0,91,0.00,,,0.00,weatherlink.com 1.10,2013-01-27 02:04:00,
2013-01-26 21:19:00,37.7,35.0,30.32,South,184,0.0,3.0,88,0.00,,,0.00,weatherlink.com 1.10,2013-01-27 02:19:00,
2013-01-26 21:34:00,37.5,34.0,30.33,SE,135,0.0,1.0,86,0.00,,,0.00,weatherlink.com 1.10,2013-01-27 02:34:00,
2013-01-26 21:50:00,36.9,33.0,30.33,ESE,117,0.0,1.0,86,0.00,,,0.00,weatherlink.com 1.10,2013-01-27 02:50:00,
2013-01-26 22:04:00,36.8,33.0,30.34,East,94,0.0,2.0,87,0.00,,,0.00,weatherlink.com 1.10,2013-01-27 03:04:00,
2013-01-26 22:19:00,36.5,33.0,30.34,ESE,113,0.0,1.0,87,0.00,,,0.00,weatherlink.com 1.10,2013-01-27 03:19:00,
2013-01-26 22:34:00,35.7,33.0,30.35,ESE,113,0.0,1.0,88,0.00,,,0.00,weatherlink.com 1.10,2013-01-27 03:34:00,
2013-01-26 22:50:00,35.1,32.0,30.35,ESE,113,0.0,1.0,89,0.00,,,0.00,weatherlink.com 1.10,2013-01-27 03:50:00,
2013-01-26 23:04:00,34.7,32.0,30.35,ESE,113,0.0,0.0,90,0.00,,,0.00,weatherlink.com 1.10,2013-01-27 04:04:00,
2013-01-26 23:20:00,34.5,32.0,30.36,ESE,115,0.0,1.0,91,0.00,,,0.00,weatherlink.com 1.10,2013-01-27 04:20:00,
2013-01-26 23:34:00,34.2,32.0,30.36,ESE,114,0.0,1.0,91,0.00,,,0.00,weatherlink.com 1.10,2013-01-27 04:34:00,
2013-01-26 23:50:00,34.0,32.0,30.35,North,1,0.0,1.0,92,0.00,,,0.00,weatherlink.com 1.10,2013-01-27 04:50:00,